Showing default

JILIN-01-04, 43022

Orbit data source: Space-Track

JILIN-01-04, 43022 is a payload satellite owned by Changguang WJ (CN) in SSO that was launched on Tue, 21 Nov 2017 UTC via a CHANG ZHENG 6 launch vehicle from the Taiyaun Space Center, China (TSC). Payload-class satellites include a variety of spacecraft equipped with specific instruments for various scientific and technological missions. These include communications satellites like Starlink; space stations such as the ISS; scientific satellites like the Hubble; Earth observation satellites from companies like Planet Labs, Umbra, and HawkEye 360; GPS; miniature CubeSats for education and research; and military/defense satellites.

Loading next visibility...
Identifier
43022, 2017-074A
Orbit
SSO
Country
Flag of CNCN / PRC
Related business
Manufacturer
HARB/CIOMP
Mission
Operational Commercial Imaging
Bus & Motor
JL-1, Unknown motor
Mass
95 kg wet, 95 kg dry
Launch date (UTC)
2017-11-21 (8 years ago)
Launch vehicle
CHANG ZHENG 6
Launch site
Taiyaun Space Center, China (TSC)
Object type
Payload
Rocket body
Debris
Shape & HBR
Box + 2 Pan, 0.8 m
Radar Cross Section
2.000 m², Medium (>0.1 m² and < 1m²)

Expand to show TLE details & history
Last TLE update: 6 hours ago

TLE from 6 hours ago
0 JILIN-01-04
1 43022U 17074A   25260.28575715  .00009615  00000-0  29666-3 0  9998
2 43022  97.4793 359.5375 0006168  98.7122 261.4819 15.33770943432315
Epoch: 2025-09-17T06:51Z
TLE epoch observation values (Epoch: 2025-09-17T06:51:29.417Z)
Latitude
-0.00006°
Longitude
-99.79896°
Altitude
468.308 km
Speed
7.632 km/s
True Right ascension
23h 58m 09s
True Declination
0° 00' 00"
Sunlit
Object was in full shadow at epoch
Visualization orbit readout
Latitude
Unknown
Longitude
Unknown
Altitude
Unknown
Speed
Unknown
Apparent Right ascension
Unknown
Apparent Declination
Unknown
Sunlit
N/A
Visualization observer readout
Local Sidereal Time
05:36:14
Azimuth
Unknown
Elevation
Unknown
Doppler factor
Unknown
Orbital elements
Apogee altitude
465.743 km
Perigee altitude
457.306 km
Semi-major axis
6,839.661 km
Eccentricity
0.00062
Inclination
97.4793°
RAAN
359.5375°
Arg. of periapsis
98.7122°
True anomaly
261.41201°
Mean anomaly
261.4819°
Eccentric anomaly
261.44695°
Mean motion
3.837 °/min
Orbital period
93.82 mins
BSTAR
0.00029666
Loading maneuver chart data...
Computing Atmospheric mass density...
Loading historical data...
Loading historical data...
Loading historical data...
Loading historical data...
Loading historical data...
Loading historical data...
Loading historical data...
Other satellites on launch #74 in the year 2017 (2017-11-21 UTC)

Documentation

Showing up to 5 results
|